Terminal Aerodrome Forecast
Issued by NWS Atlanta, GA

Home | Current Version | Previous Version | Text Only | Print | Product List | Glossary On
Versions: 1 2 3 4 5 6 7 8 9 10 11 12 13 14 15 16
000
FTUS42 KFFC 310520
TAFMCN
TAF
KMCN 310520Z 3106/0106 00000KT P6SM SKC
     FM311100 04003KT P6SM FEW200
     FM311800 16003KT P6SM BKN200
     FM010200 00000KT P6SM BKN150=

USA.gov is the U.S. government's official web portal to all federal, state and local government web resources and services.